AirNav   ProFlight Series 2 Aviation Headset
 
 1034 users online  

7MI0 Kamikaze Run Heliport
Novi, Michigan, USA

GOING TO NOVI?


FAA INFORMATION EFFECTIVE 16 JULY 2020

Location

FAA Identifier: 7MI0
Lat/Long: 42-30-50.1210N 083-29-21.7710W
42-30.835350N 083-29.362850W
42.5139225,-83.4893808
(estimated)
Elevation: 935 ft. / 285 m (estimated)
Variation: 06W (1985)
Time zone: UTC -4 (UTC -5 during Standard Time)
Zip code: 48390

Heliport Operations

Heliport use: Private use. Permission required prior to landing
Activation date: 02/1982
Control tower: no
ARTCC: CLEVELAND CENTER
FSS: LANSING FLIGHT SERVICE STATION
Attendance: UNATNDD
Wind indicator: yes
Segmented circle: no

Heliport Communications

WX ASOS at PTK (10 nm N): 125.025 (248-886-8551)
WX AWOS-3 at VLL (14 nm E): 119.475 (248-288-4649)
WX ASOS at YIP (17 nm S): PHONE 734-961-6843
WX ASOS at DTW (19 nm S): 133.675 (734-955-5015)

Nearby radio navigation aids

VOR radial/distance  VOR name  Freq  Var
SVMr039/7.8SALEM VORTAC114.3003W
DXOr349/18.8DETROIT VOR/DME113.4006W
CRLr000/28.0CARLETON VOR/DME115.7003W
FNTr163/29.4FLINT VORTAC116.9006W

 
NDB name  Hdg/Dist  Freq  Var  ID
GROSSE ILE336/28.941907WRYS .-. -.-- ...
TECUMSEH037/33.823906WTCU - -.-. ..-

Heliport Services

Runway Information

Helipad H1

Dimensions: 90 x 50 ft. / 27 x 15 m
Surface: turf
Latitude: 42-30.835350N
Longitude: 083-29.362850W
Elevation: 935.0 ft.
Traffic pattern: leftleft

Heliport Ownership and Management from official FAA records

Ownership: Privately-owned
Owner: A M KOWAL
1185 SO LAKE DRIVE
NOVI, MI 48088
Phone 313-669-1887
Manager: A M KOWAL
1185 SO LAKE DRIVE
NOVI, MI 48088
Phone 313-669-1887

Heliport Operational Statistics

Aircraft based on the field: 1
Helicopters: 1
    

Additional Remarks

FOR CD CTC DETROIT APCH AT 800-499-8181.

Instrument Procedures

There are no published instrument procedures at 7MI0.

Some nearby airports with instrument procedures:

Y47 - Oakland Southwest Airport (6 nm W)
KPTK - Oakland County International Airport (10 nm N)
1D2 - Canton-Plymouth-Mettetal Airport (10 nm S)
KVLL - Oakland/Troy Airport (14 nm E)
KYIP - Willow Run Airport (17 nm S)
KDTW - Detroit Metropolitan Wayne County Airport (19 nm S)
 
Loc | Ops | Rwys | IFR | FBO | Links
Com | Nav | Svcs | Stats | Notes
Area around 7MI0 (Kamikaze Run Heliport)
 
Road maps at: MapQuest Bing Google
 
Aerial photo
No photo
 
Sectional chart

 
Airport distance calculator
Flying to Kamikaze Run Heliport? Find the distance to fly.

From to 7MI0

Sunrise and sunset
Times for 04-Aug-2020
 Local
(UTC-4)
 Zulu
(UTC)
Morning civil twilight06:0010:00
Sunrise06:3110:31
Sunset20:4900:49
Evening civil twilight21:2001:20

Current date and time
Zulu (UTC)  05-Aug-2020 00:41:51
Local (UTC-4)  04-Aug-2020 20:41:51
 
METAR
KPTK 
10nm N 
050012Z 34006KT 10SM SCT025 BKN055 17/14 A2997 RMK AO2 T01720139 $
KVLL 
14nm E 
050015Z AUTO 01003KT 10SM SCT023 BKN043 OVC075 19/16 A3000 RMK AO2 T01920155
KYIP 
17nm S 
042353Z 33006KT 10SM BKN035 BKN042 OVC049 22/14 A2998 RMK AO2 SLP145 T02170144 10244 20217 53004
KDTW 
18nm S 
042353Z 33011KT 10SM FEW035 SCT065 BKN090 21/14 A2997 RMK AO2 SLP146 T02110139 10239 20211 53006 $
TAF
KPTK 
10nm N 
041739Z 0418/0518 33012KT P6SM SCT020 BKN035 TEMPO 0419/0423 -SHRA BKN028 FM042300 34010KT P6SM SCT035 BKN045 FM050200 33004KT P6SM SCT040 FM051000 30005KT P6SM FEW030 SCT040
KYIP 
17nm S 
041739Z 0418/0518 32011KT P6SM SCT025 BKN035 FM042000 32010KT P6SM SCT035 BKN050 TEMPO 0420/0424 -SHRA BKN030 FM050200 33004KT P6SM SCT040 FM051000 30005KT P6SM FEW030 SCT040
KDTW 
18nm S 
042050Z 0421/0524 32010KT P6SM SCT035 BKN050 TEMPO 0421/0424 BKN030 FM050200 33004KT P6SM SCT040 FM051000 30005KT P6SM FEW030 SCT040
NOTAMs
Click for the latest NOTAMs
NOTAMs are issued by the DoD/FAA and will open in a separate window not controlled by AirNav.

 

 
 

Would you like to see your business listed on this page?

 If your business provides an interesting product or service to pilots, flight crews, aircraft, or users of the Kamikaze Run Heliport, you should consider listing it here.  To start the listing process, click on the button below
 
Add a business
 

Other Pages about Kamikaze Run Heliport

Update a link
 
Copyright © AirNav, LLC. All rights reserved. Privacy Policy  Contact